SL-14 R/B, 24731

Orbit data source: Space-Track

SL-14 R/B, 24731 is space debris in LEO originally from a launch on Fri, 14 Feb 1997 UTC launched from the Plesetsk Missile And Space Complex (PKMTR). Debris objects in space refer to the collection of defunct objects orbiting the Earth. Examples of debris include non-operational satellites, rocket bodies, and fragments generated from explosions, collisions, or faulty payload assembly.

Loading next visibility...
Identifier
24731, 1997-006G
Orbit
LEO
Country
Flag of CISCIS
Related business
Manufacturer
Yuzhnoe
Mission
Spacecraft
Bus & Motor
S5M, Unknown motor
Mass
1,600 kg wet, 1,600 kg dry
Launch date (UTC)
1997-02-14 (29 years ago)
Launch vehicle
Unknown
Launch site
Plesetsk Missile And Space Complex (PKMTR)
Object type
Payload
Rocket body
Debris
Shape & HBR
Cyl, 1.4 m
Radar Cross Section
7.351 m², Large (>1 m²)

Expand to show TLE details & history
Last TLE update: 9 hours ago

TLE from 9 hours ago
0 SL-14 R/B
1 24731U 97006G   26128.16115174  .00000003  00000-0 -48536-4 0  9998
2 24731  82.6037   4.8942 0042191 114.1050   2.3195 12.55271876339011
Epoch: 2026-05-08T03:52Z
TLE epoch observation values (Epoch: 2026-05-08T03:52:03.510Z)
Latitude
62.69766°
Longitude
-113.60893°
Altitude
1,420.273 km
Speed
7.171 km/s
True Right ascension
11h 21m 36s
True Declination
62° 34' 09"
Sunlit
Object was in daylight at epoch
Visualization orbit readout
Latitude
Unknown
Longitude
Unknown
Altitude
Unknown
Speed
Unknown
Apparent Right ascension
Unknown
Apparent Declination
Unknown
Sunlit
N/A
Visualization observer readout
Local Sidereal Time
20:52:44
Azimuth
Unknown
Elevation
Unknown
Doppler factor
Unknown
Orbital elements
Apogee altitude
1,472.836 km
Perigee altitude
1,406.866 km
Semi-major axis
7,817.988 km
Eccentricity
0.00422
Inclination
82.6037°
RAAN
4.8942°
Arg. of periapsis
114.105°
True anomaly
2.33917°
Mean anomaly
2.3195°
Eccentric anomaly
2.32932°
Mean motion
3.13979 °/min
Orbital period
114.66 mins
BSTAR
-0.000048536
Loading maneuver chart data...
Computing Atmospheric mass density...
Loading historical data...
Loading historical data...
Loading historical data...
Loading historical data...
Loading historical data...
Loading historical data...
Loading historical data...

Documentation

Showing up to 5 results
|